Clemson, SC

1:55 PM EDT on October 01, 2016 (GMT -0400)
Oconee County Regional

Weather History for KCEU - October, 2013

Change the Weather History Date:

Monday, October 14, 2013

  Actual Average Record
Temperature  
Mean Temperature 68 °F -  
Max Temperature 72 °F 75 °F 89 °F (1940)
Min Temperature 64 °F 49 °F 30 °F (1988)
Cooling Degree Days 3    
Growing Degree Days 18 (Base 50)    
Moisture  
Dew Point 60 °F    
Average Humidity 77    
Maximum Humidity 88    
Minimum Humidity 66    
Precipitation  
Precipitation 0.01 in - - ()
Sea Level Pressure  
Sea Level Pressure 30.19 in    
Wind  
Wind Speed 5 mph (ENE)    
Max Wind Speed 10 mph    
Max Gust Speed 17 mph    
Visibility 10 miles    
Events Rain    
Averages and records for this station are not official NWS values.
T = Trace of Precipitation, MM = Missing Value Source: NWS Daily Summary

Daily Weather History Graph

Daily Weather History Graph

Search for Another Location

Airport or City:

Trip Planner

Search our weather history database for the weather conditions in past years. The results will help you decide how hot, cold, wet, or windy it might be!

Date:

Astronomy

Oct. 14, 2013 Rise Set
Actual Time 7:36 AM EDT 6:57 PM EDT
Civil Twilight 7:11 AM EDT 7:23 PM EDT
Nautical Twilight 6:41 AM EDT 7:52 PM EDT
Astronomical Twilight 6:12 AM EDT 8:21 PM EDT
Moon 4:17 PM EDT (10/14) 3:02 AM EDT (10/14)
Length of Visible Light 12h 12m
Length of Day
11h 21m
Waxing Gibbous, 79% of the Moon is Illuminated
Oct 14
Waxing Gibbous
Oct 18
Full
Oct 26
Last Quarter
Nov 3
New
Nov 10
First Quarter

Hourly Weather History & Observations

Time (EDT) Temp. Dew Point Humidity Pressure Visibility Wind Dir Wind Speed Gust Speed Precip Events Conditions
12:54 AM 66.0 °F 62.1 °F 87% 30.19 in 10.0 mi NNE 3.5 mph - N/A   Mostly Cloudy
1:54 AM 66.0 °F 62.1 °F 87% 30.19 in 10.0 mi NNE 3.5 mph - N/A   Mostly Cloudy
2:54 AM 66.0 °F 61.0 °F 84% 30.18 in 10.0 mi NE 3.5 mph - N/A   Clear
3:23 AM 66.2 °F 60.8 °F 83% 30.20 in 10.0 mi NNE 4.6 mph - N/A   Mostly Cloudy
3:54 AM 64.9 °F 61.0 °F 87% 30.17 in 10.0 mi NE 4.6 mph - N/A   Mostly Cloudy
4:12 AM 64.4 °F 60.8 °F 88% 30.20 in 10.0 mi NE 5.8 mph - N/A   Mostly Cloudy
4:54 AM 64.9 °F 60.1 °F 84% 30.18 in 10.0 mi ENE 4.6 mph - N/A   Scattered Clouds
5:54 AM 64.9 °F 60.1 °F 84% 30.19 in 10.0 mi ENE 3.5 mph - N/A   Overcast
6:12 AM 64.4 °F 60.8 °F 88% 30.21 in 10.0 mi NE 3.5 mph - 0.01 in   Overcast
6:38 AM 64.4 °F 60.8 °F 88% 30.22 in 10.0 mi ENE 4.6 mph - 0.01 in   Overcast
6:54 AM 64.9 °F 60.1 °F 84% 30.20 in 10.0 mi NE 5.8 mph - 0.01 in   Mostly Cloudy
7:54 AM 64.0 °F 59.0 °F 84% 30.22 in 10.0 mi ENE 6.9 mph - N/A   Clear
8:54 AM 66.0 °F 59.0 °F 78% 30.22 in 10.0 mi ENE 9.2 mph - N/A   Clear
9:11 AM 66.2 °F 59.0 °F 78% 30.25 in 10.0 mi ENE 10.4 mph - N/A   Mostly Cloudy
9:54 AM 68.0 °F 59.0 °F 73% 30.23 in 10.0 mi ENE 6.9 mph - N/A   Overcast
10:54 AM 68.0 °F 59.0 °F 73% 30.24 in 10.0 mi NE 10.4 mph - N/A   Overcast
11:54 AM 70.0 °F 60.1 °F 71% 30.21 in 10.0 mi East 8.1 mph - N/A   Overcast
12:54 PM 70.0 °F 59.0 °F 68% 30.21 in 10.0 mi East 10.4 mph 17.3 mph N/A   Overcast
1:54 PM 72.0 °F 60.1 °F 66% 30.18 in 10.0 mi NNE 6.9 mph - N/A   Overcast
2:33 PM 71.6 °F 60.8 °F 69% 30.19 in 10.0 mi East 6.9 mph - N/A   Overcast
2:54 PM 72.0 °F 60.1 °F 66% 30.17 in 10.0 mi NE 8.1 mph - N/A   Overcast
3:08 PM 71.6 °F 60.8 °F 69% 30.18 in 10.0 mi NE 4.6 mph - 0.00 in Rain Light Rain
3:25 PM 69.8 °F 60.8 °F 73% 30.18 in 10.0 mi ENE 4.6 mph - 0.00 in Rain Light Rain
3:54 PM 70.0 °F 61.0 °F 73% 30.15 in 10.0 mi East 4.6 mph - 0.00 in   Overcast
4:54 PM 71.1 °F 60.1 °F 68% 30.15 in 10.0 mi East 6.9 mph - N/A   Overcast
5:54 PM 71.1 °F 60.1 °F 68% 30.16 in 10.0 mi Calm Calm - N/A   Overcast
6:54 PM 70.0 °F 59.0 °F 68% 30.17 in 10.0 mi Calm Calm - N/A   Overcast
7:54 PM 70.0 °F 61.0 °F 73% 30.18 in 10.0 mi East 3.5 mph - N/A   Overcast
8:54 PM 69.1 °F 60.1 °F 73% 30.18 in 10.0 mi East 4.6 mph - N/A   Overcast
9:54 PM 68.0 °F 60.1 °F 76% 30.18 in 10.0 mi ESE 5.8 mph - N/A   Overcast
10:54 PM 68.0 °F 60.1 °F 76% 30.19 in 10.0 mi East 4.6 mph - N/A   Overcast
11:23 PM 66.2 °F 60.8 °F 83% 30.20 in 10.0 mi East 4.6 mph - N/A   Overcast
11:54 PM 66.9 °F 60.1 °F 79% 30.19 in 10.0 mi East 5.8 mph - N/A   Overcast